SCP
0 0 0 0 0 0 0 -0 0 0 0 0 0 0 0 -0 0 0 0 0 0 0 0 0 0 0 -0 -0 0 0 -0 -0 -0 -0 -0 -0 0 0 0 0 0 0 0 0 0 0 0 0 0 0 0 0 0 0
0 0 0 0 0 0 -0 0 0 0 0 0 0 0 0 -0 -0 0 0 0 0 0 0 0 0 0 0 0 0 -0 0 0 0 0 0 -0 0 0 0 0 0 0 0 0 0 0 0 0 0 0 0 0 0 0
0 0 0 0 0 0 0 0 0 0 0 0 0 0 0 0 0 0 0 0 0 0 -0 -0 0 0 0 0 0 0 -0 -0 -0 0 0 -0 0 0 0 0 -0 0 0 0 0 -0 0 0 0 0 0 0 0 0
0 0 0 0 0 0 0 0 0 0 0 0 0 0 0 0 0 0 0 0 0 0 0 0 0 -0 0 -0 0 -0 0 -0 -0 -0 -0 -0 -0 0 -0 -0 0 -0 0 0 0 0 0 0 0 0 0 0 0 0
0 0 0 0 0 0 0 0 0 0 0 0 0 0 0 0 0 0 0 0 0 0 0 0 0 -0 -0 0 0 0 -0 -0 0 -0 -0 0 -0 0 0 -0 -0 -0 -0 0 0 0 0 0 0 0 0 0 0 0
0 0 0 0 0 0 0 0 0 0 0 0 0 0 0 0 0 0 0 0 0 0 0 -0 0 0 0 0 0 0 0 -0 -0 0 0 0 0 0 0 0 -0 -0 -0 -0 0 0 -0 0 0 0 0 0 0 0
0 0 0 0 0 0 -0 0 0 0 0 0 0 0 0 0 0 0 0 0 0 0 0 0 0 0 0 0 0 -0 -0 0 -0 0 0 0 0 0 0 -0 -0 -0 -0 0 -0 0 0 0 0 0 0 0 0 0
0 0 0 0 0 0 0 0 0 0 0 0 0 0 0 0 0 0 0 0 0 0 0 0 0 0 0 0 -0 -0 0 0 0 0 0 0 0 0 0 -0 -0 0 0 0 0 -0 0 0 0 0 0 0 0 0
0 0 0 0 0 0 0 0 0 0 0 0 0 0 0 0 0 0 0 0 0 0 0 0 0 0 0 -0 0 0 -0 0 0 0 0 0 0 0 -0 -0 -0 -0 -0 -0 0 0 -0 -0 -0 0 0 0 0 0
0 0 0 0 0 0 0 0 0 0 0 0 0 0 0 0 0 0 0 0 0 0 0 0 0 0 0 0 0 0 0 0 0 0 0 0 -0 -0 -0 0 0 -0 -0 0 0 -0 -0 -0 0 0 0 0 0 0
0 0 0 0 0 0 0 0 0 0 0 0 0 0 0 0 0 0 0 0 0 0 0 0 0 0 0 0 0 0 0 0 0 0 0 0 0 0 0 0 0 0 0 0 0 0 0 0 0 0 0 0 0 0
0 0 0 0 0 0 0 0 0 0 0 0 0 0 0 0 0 0 0 0 0 0 0 0 0 0 0 0 0 0 0 0 0 0 0 0 0 0 0 0 0 0 0 0 0 0 0 0 0 0 0 0 0 0
0 0 0 0 0 0 0 0 0 0 0 0 0 0 0 0 0 0 0 0 0 0 0 0 0 0 0 0 0 0 0 0 0 0 0 0 0 0 0 0 0 0 0 0 0 0 0 0 0 0 0 0 0 0
0 0 0 0 0 0 0 0 0 0 0 0 0 0 0 0 0 0 0 0 0 0 0 0 0 0 0 0 0 0 0 0 0 0 0 0 0 0 0 0 0 0 0 0 0 0 0 0 0 0 0 0 0 0
0 0 0 0 -0 0 0 0 0 0 0 0 0 0 0 0 0 0 0 0 0 0 0 0 0 0 0 0 0 0 0 0 0 0 0 0 0 0 0 0 0 0 0 0 0 0 0 0 0 0 0 0 0 0
0 0 0 0 -0 -0 0 0 0 0 0 0 0 0 0 0 0 0 0 0 0 0 0 0 0 0 0 0 0 0 0 0 0 0 0 0 0 0 0 0 0 0 0 0 0 0 0 0 0 0 0 0 0 0
0 0 0 0 0 0 0 0 0 0 -0 0 0 0 0 0 0 0 0 0 0 0 0 0 0 0 0 0 0 0 0 0 0 0 0 0 0 0 0 0 0 0 0 0 0 0 0 0 0 0 0 0 0 0
0 0 0 -0 -0 0 0 0 0 0 0 0 0 -0 -0 0 0 0 0 0 0 0 0 0 0 0 0 0 0 0 0 0 0 0 0 0 0 1 0 0 0 0 0 0 0 0 0 0 0 0 0 0 0 0
0 0 0 0 0 -0 -0 0 0 0 0 0 0 0 0 0 0 0 0 0 0 0 0 0 0 0 0 0 0 0 0 0 0 0 1 1 1 0 0 0 0 0 0 0 0 0 0 0 0 0 0 0 0 0
0 0 0 0 0 0 0 -0 -0 -0 -0 0 -0 0 -0 0 0 0 0 0 0 0 0 0 0 0 0 0 -0 0 0 0 0 0 1 0 0 0 0 0 0 0 0 0 0 0 0 0 0 0 0 0 0 0
-0 0 0 0 0 0 0 0 -0 0 0 0 0 0 0 0 0 0 0 0 0 0 0 0 0 0 0 0 0 0 0 0 0 0 1 0 0 0 0 0 0 0 0 -0 0 0 -0 0 0 0 0 -0 0 0
0 0 0 0 0 0 0 0 0 0 0 0 0 0 0 0 -0 -0 -0 -0 0 0 0 0 0 0 0 0 0 0 0 0 0 0 0 0 0 0 0 0 0 0 -0 0 0 0 -0 0 0 0 0 0 -0 0
0 0 0 -0 0 0 0 0 0 0 0 0 -0 0 0 0 -0 0 0 -0 0 0 0 0 0 0 1 1 1 0 0 0 0 1 0 0 0 0 0 0 -0 -0 -0 0 -0 0 0 0 0 -0 0 0 0 0
0 0 0 0 0 0 0 0 0 0 0 0 0 0 0 0 0 0 0 0 0 0 0 0 0 0 0 0 0 0 0 0 0 0 0 0 0 0 0 -0 -0 -0 -0 0 0 0 0 0 0 0 -0 0 0 -0
0 0 0 0 0 0 0 0 -0 0 0 0 -0 0 0 0 0 0 0 0 0 0 0 0 0 0 0 0 0 0 0 0 0 0 0 0 0 0 -0 -0 0 0 -0 0 0 0 0 0 0 0 0 0 0 0
0 0 0 0 0 0 0 0 0 0 0 0 0 0 0 0 0 0 0 0 -0 -0 0 0 0 0 0 0 0 0 0 -0 0 0 0 -0 -0 0 0 0 0 -0 -0 -0 0 0 0 0 0 0 0 0 0 -0
0 0 0 0 0 0 0 0 0 0 0 0 0 0 0 0 0 0 -0 -0 0 0 0 0 0 0 0 0 0 0 0 0 0 0 -0 0 -0 0 0 0 -0 0 -0 0 0 0 0 0 0 0 0 0 0 0
0 0 0 0 0 0 0 0 0 0 0 0 0 0 0 0 0 0 0 0 0 0 0 0 0 0 0 0 0 0 0 0 0 -0 0 0 -0 -0 0 0 0 0 0 0 0 0 0 0 0 0 0 0 0 0
0 0 0 0 0 0 0 0 0 0 0 0 0 0 0 0 0 0 0 0 0 -0 0 0 0 0 0 0 0 0 0 0 0 0 -0 0 0 0 0 0 0 0 -0 0 0 -0 0 0 0 0 0 0 0 0
0 0 0 0 0 0 0 0 -0 0 0 0 0 0 -0 -0 0 -0 0 0 -0 0 0 -0 -0 -0 -0 0 0 -0 -0 -0 0 0 0 0 0 0 0 0 0 0 0 0 0 0 0 0 0 0 0 0 0 0
0 0 0 0 0 0 0 0 -0 0 -0 0 -0 -0 -0 -0 0 0 -0 -0 0 0 -0 -0 0 0 0 0 0 -0 0 0 0 0 0 0 0 0 0 0 0 0 0 -0 0 0 0 0 0 0 0 -0 0 0
0 0 0 0 0 0 0 0 -0 -0 -0 -0 -0 -0 -0 -0 0 0 0 -0 0 0 0 -0 -0 -0 -0 0 0 0 0 0 0 0 0 -0 0 0 0 0 0 0 0 0 0 0 0 -0 0 0 0 0 0 0
0 0 0 0 0 0 0 0 0 0 0 -0 0 -0 -0 0 0 0 -0 -0 -0 0 0 0 -0 0 0 -0 0 0 0 0 0 0 0 0 0 0 0 0 0 0 0 0 0 0 0 0 0 0 0 0 0 0
Wind_Speed_500mb
45 42 41 45 45 46 48 48 40 30 20 18 20 21 15 11 6 5 5 14 5 13 12 4 7 5 1 5 11 15 16 16 13 7 8 5 5 9 4 19 25 25 17 18 25 5 16 17 10 7 13 15 15 16
39 37 41 45 44 44 47 47 44 36 22 19 22 24 19 15 11 10 6 13 19 5 25 16 17 14 12 7 15 6 14 6 14 10 3 5 6 10 10 16 14 17 23 11 18 10 23 10 18 14 13 14 16 12
35 37 42 43 44 45 47 48 44 37 23 22 25 27 23 20 18 19 12 13 10 21 19 16 12 5 6 4 4 15 7 5 5 10 19 7 4 10 12 12 24 10 17 17 16 33 13 15 18 17 12 13 12 6
36 40 42 43 42 45 49 41 36 35 23 25 29 29 26 23 21 21 10 13 9 17 11 16 8 3 4 2 3 6 3 4 7 10 18 10 10 5 14 10 10 8 32 20 21 22 28 6 14 11 10 9 9 4
36 39 43 43 45 45 41 36 33 29 24 27 32 31 29 26 24 22 8 14 8 9 8 18 11 8 4 5 4 5 7 10 13 15 12 11 6 7 20 10 16 25 14 15 12 59 13 30 14 13 9 8 7 8
34 39 43 44 41 32 33 34 30 17 20 27 34 33 31 28 24 18 15 17 9 6 5 9 15 16 10 6 6 6 6 9 12 10 8 4 3 9 9 11 7 21 20 17 11 35 25 8 8 6 9 8 8 9
33 37 40 37 31 39 34 30 18 21 20 30 38 35 33 32 27 16 2 9 30 17 12 8 9 19 19 12 9 8 4 5 11 8 9 16 9 10 11 18 13 8 13 16 14 10 15 14 17 11 9 8 9 8
31 35 33 27 33 30 23 11 9 18 21 35 35 32 31 32 22 10 4 6 34 21 12 7 6 12 23 22 18 7 9 7 10 10 3 14 14 10 7 13 17 13 15 16 14 12 10 11 9 10 10 12 13 12
29 33 29 23 21 21 13 6 8 17 32 33 31 29 24 20 18 17 14 11 28 13 10 11 10 9 22 24 4 10 8 8 5 9 7 2 8 7 16 17 10 17 23 21 18 18 14 15 14 11 10 12 18 15
26 29 25 19 13 12 12 6 18 27 30 34 37 11 14 20 15 13 8 13 16 24 18 12 24 7 23 19 19 6 8 3 5 7 6 8 12 28 23 17 13 15 20 19 23 22 18 17 15 17 15 11 12 5
23 24 24 18 10 6 1 2 15 24 34 27 14 6 9 24 18 12 12 15 19 10 18 28 28 14 14 12 9 5 3 6 6 9 6 5 7 13 9 19 21 17 21 20 21 18 18 17 15 15 13 11 12 12
20 21 22 19 13 7 7 13 20 25 11 14 10 12 18 11 13 12 11 10 9 15 14 28 28 19 17 9 6 9 6 5 8 12 7 4 9 14 9 16 20 20 23 22 20 17 16 15 15 13 10 9 8 6
17 19 20 20 14 19 11 25 25 22 13 13 6 15 11 11 2 12 17 11 11 14 19 22 24 19 10 18 6 5 8 9 4 7 4 9 21 14 13 16 19 18 23 25 24 22 20 19 17 16 14 10 9 8
16 17 19 21 13 23 25 21 27 19 13 8 10 2 10 11 11 12 16 16 14 20 31 34 31 16 14 13 8 9 5 3 7 8 8 16 17 14 17 19 23 24 26 28 28 25 23 22 19 17 13 10 10 11
17 15 19 19 12 27 32 28 27 21 10 6 10 7 13 17 3 11 13 4 12 25 37 35 25 15 15 8 8 6 8 9 9 10 6 26 14 13 15 19 22 23 24 26 33 31 31 31 27 24 16 13 11 11
17 12 16 12 9 30 32 38 27 14 5 4 12 11 8 9 18 20 19 24 25 30 32 31 11 8 9 8 11 13 8 8 7 5 16 18 18 19 22 21 20 22 27 35 44 37 34 31 32 19 18 11 9 12
14 13 11 6 14 34 26 12 11 10 16 12 16 27 29 19 17 20 21 25 31 35 18 15 11 11 8 7 11 9 11 3 5 4 6 14 19 22 22 19 18 17 22 27 30 28 24 25 26 18 9 5 11 14
11 18 10 14 24 14 31 20 6 9 10 15 23 32 43 25 22 17 12 21 34 35 35 14 8 10 12 18 12 9 15 11 5 5 5 11 16 19 17 15 10 11 18 26 35 38 32 24 15 4 10 13 11 7
20 14 15 18 24 18 15 16 15 9 20 28 37 34 21 22 21 22 14 23 29 21 11 12 12 12 17 15 15 15 5 11 12 4 7 7 11 10 11 14 22 33 36 36 31 22 12 10 13 16 14 10 9 5
17 19 27 20 21 10 9 12 21 15 13 24 38 38 40 41 31 28 29 26 30 27 20 11 22 29 6 15 18 6 11 18 23 8 12 16 10 18 21 27 31 37 33 27 11 19 21 17 16 15 13 12 11 11
11 15 25 25 17 12 9 7 16 12 11 9 9 13 20 35 36 29 26 32 37 39 29 35 42 39 6 5 19 18 12 11 14 8 16 17 18 25 30 31 37 33 21 30 30 25 20 18 15 15 14 13 10 13
14 19 15 17 12 9 12 16 10 8 9 18 15 21 13 24 34 30 28 35 38 37 43 48 45 39 38 26 17 12 7 9 8 9 11 19 26 32 34 34 34 34 33 29 26 21 16 16 12 14 15 15 12 13
19 14 10 13 11 9 12 12 10 11 8 9 17 10 13 21 33 24 17 30 38 40 38 41 44 19 18 7 11 12 12 13 13 14 15 17 20 34 34 34 36 35 31 26 21 21 17 17 11 12 15 14 15 18
16 5 7 9 14 9 9 10 11 10 13 18 14 16 10 16 17 13 10 13 17 16 22 24 18 20 15 19 19 18 14 15 14 16 18 23 27 33 30 38 31 26 25 23 21 19 19 14 15 12 15 15 19 21
7 8 8 9 12 9 10 10 23 17 12 14 19 8 4 7 7 4 4 5 6 11 13 15 20 23 16 12 13 12 14 15 14 17 24 24 23 30 35 30 29 30 26 26 23 21 20 19 16 17 17 18 19 22
5 8 8 9 10 11 6 5 4 6 10 6 12 6 6 5 2 3 2 6 15 13 9 11 11 11 14 17 15 14 20 17 13 18 25 27 30 31 40 35 29 29 24 25 26 22 22 21 22 20 20 19 20 20
5 11 18 16 14 11 11 17 15 5 8 4 2 4 2 6 9 10 10 8 5 3 2 4 7 10 17 17 16 19 20 15 22 22 20 20 18 19 26 26 28 26 27 25 23 24 24 22 20 21 21 19 20 18
13 12 17 11 14 14 16 10 6 4 6 8 5 2 3 6 6 5 13 8 6 4 2 3 7 10 12 17 23 24 22 18 16 16 16 17 15 15 18 29 19 16 23 21 21 22 20 21 20 19 20 21 21 21
16 12 17 16 14 9 8 4 5 5 6 7 5 4 5 5 12 15 12 8 7 6 9 12 16 18 23 23 19 20 21 20 20 17 18 18 17 17 16 16 13 16 23 23 25 23 19 18 17 17 18 20 21 20
17 20 10 10 11 4 3 8 10 7 3 8 8 2 3 5 11 12 11 9 7 10 13 18 17 20 22 20 17 17 18 17 18 21 20 15 16 9 10 11 12 15 20 24 22 24 31 26 20 17 19 20 19 18
7 12 10 11 8 11 20 16 11 7 2 2 7 10 8 10 11 10 7 5 11 12 12 10 14 16 16 18 17 16 15 13 10 6 10 8 6 9 9 7 5 9 14 20 24 25 23 23 16 16 17 18 17 19
18 18 14 12 16 15 12 9 13 12 14 11 10 8 7 9 11 11 12 9 7 9 8 9 10 10 10 13 13 10 7 15 12 12 9 5 3 4 8 7 4 5 8 15 23 24 26 25 23 19 20 24 21 21
23 21 20 15 12 9 15 14 12 8 10 9 9 13 21 8 11 8 7 8 6 3 7 7 8 12 13 11 7 7 11 9 11 10 8 7 7 7 10 8 6 6 8 12 17 21 24 26 24 21 20 18 17 17
Wind_Direction_500mb
305 306 306 313 315 318 319 318 318 305 289 262 246 229 219 210 214 179 206 176 192 102 106 91 78 62 67 274 309 65 270 190 262 277 271 306 227 274 267 285 281 290 262 246 262 210 252 322 238 295 22 322 347 330
306 307 309 313 315 315 316 315 310 300 276 246 225 217 204 199 189 155 152 177 116 4 123 121 96 78 74 16 304 282 322 308 350 297 207 324 254 245 262 274 170 255 286 341 346 21 120 127 80 61 16 354 341 306
308 310 312 313 314 315 314 312 307 300 260 231 209 206 198 190 188 179 146 186 133 139 146 171 127 70 50 22 266 270 153 356 238 294 312 319 323 279 278 269 269 222 227 253 202 200 168 107 95 63 29 5 357 298
311 314 314 315 315 314 311 309 300 297 243 217 201 195 194 187 186 177 157 213 193 207 248 146 172 223 39 4 160 211 263 231 257 249 260 273 272 148 276 324 287 319 24 254 255 103 2 209 113 103 73 46 44 99
314 317 318 317 314 313 307 305 294 291 227 205 193 188 190 183 183 188 181 205 185 260 281 124 161 199 155 98 117 167 199 214 218 218 227 249 316 334 263 285 282 250 235 252 270 19 277 120 141 125 109 89 89 128
318 322 321 319 318 314 310 304 293 254 204 192 184 185 184 178 169 153 191 218 208 234 239 207 122 172 182 146 119 136 180 226 245 269 268 353 359 291 284 298 309 250 233 267 314 130 247 65 112 133 134 120 110 140
319 323 322 325 326 321 314 305 262 213 213 183 180 180 178 176 168 205 338 160 196 180 241 240 189 187 200 207 191 161 146 212 254 241 250 267 164 209 278 266 282 266 250 239 253 175 178 191 185 163 160 148 128 129
318 324 325 326 332 337 331 312 215 201 194 171 171 171 174 179 188 196 243 177 181 195 242 251 128 165 196 216 187 195 208 198 185 269 221 243 157 231 262 264 248 210 215 215 224 222 292 171 184 183 194 191 191 187
320 324 325 324 333 347 337 332 176 173 157 158 157 152 149 157 189 195 205 171 180 228 238 214 217 175 170 233 180 185 247 212 115 244 213 196 221 223 241 256 225 220 215 218 214 218 207 205 197 199 209 221 235 223
317 321 323 318 317 334 351 87 131 144 148 145 137 141 171 179 188 158 148 167 180 221 242 258 232 169 189 179 197 218 192 228 221 169 110 228 242 238 231 228 232 215 212 220 199 210 208 220 214 228 229 225 246 230
308 318 328 314 284 284 330 146 149 149 149 145 178 161 128 160 151 191 185 203 193 219 214 223 226 161 207 199 199 228 198 194 249 130 233 242 247 147 184 210 209 211 205 212 210 215 215 226 219 223 216 221 223 224
297 310 333 324 269 219 194 162 153 147 181 198 152 113 135 181 208 193 191 207 210 209 195 200 194 210 150 215 247 171 236 179 244 126 230 264 127 140 167 177 188 195 194 197 194 191 187 177 174 176 181 190 189 192
290 304 321 330 273 190 181 162 192 198 196 163 197 172 191 173 182 210 189 189 198 195 159 171 171 171 137 217 217 183 221 223 68 225 210 227 122 153 170 177 183 191 194 191 184 180 176 169 166 168 169 179 187 196
277 288 307 316 262 187 184 187 199 208 179 216 190 323 215 189 223 211 222 210 175 166 167 177 165 176 180 175 199 220 188 244 241 200 238 129 150 177 187 188 186 189 194 200 201 201 198 192 193 193 201 202 221 232
266 279 299 304 244 188 185 187 201 190 205 208 239 232 214 246 318 252 247 128 162 164 165 165 178 178 186 171 210 222 186 239 226 215 131 123 154 180 189 197 195 191 198 216 220 219 224 219 214 215 210 218 229 248
273 297 279 263 227 195 194 186 193 189 182 189 248 257 241 280 243 216 201 214 169 172 172 171 166 225 170 217 176 202 224 220 196 157 105 137 168 182 189 200 226 236 232 232 222 224 236 229 207 196 186 201 241 257
267 265 255 205 199 180 174 161 141 204 197 205 224 245 272 296 291 217 188 202 169 181 191 197 186 180 222 219 207 207 217 28 86 73 183 183 205 210 213 245 263 256 229 210 201 210 195 156 146 157 197 240 268 266
222 258 208 155 167 148 198 182 164 245 257 238 239 201 232 247 267 254 189 149 181 196 216 212 275 192 196 217 208 177 212 261 273 283 304 177 195 206 225 250 253 205 189 169 166 149 145 146 153 241 270 245 235 221
221 236 176 155 163 169 183 198 208 266 231 225 240 242 247 233 231 243 250 200 212 238 224 204 225 230 234 255 231 198 341 39 297 137 156 120 157 194 195 163 148 139 139 137 140 143 173 231 217 194 191 199 204 186
236 222 183 174 169 195 225 188 187 241 240 225 225 233 232 229 228 218 217 210 202 213 220 226 245 244 158 303 251 272 297 325 309 257 163 169 188 187 176 157 153 152 148 146 154 148 157 173 178 178 181 180 171 152
218 204 186 185 208 234 278 252 210 244 288 266 258 269 248 223 215 227 224 211 215 221 228 232 240 256 276 191 247 275 287 283 291 293 211 196 186 171 170 166 160 163 164 162 163 163 178 169 170 178 179 178 168 165
164 155 160 189 220 231 256 244 252 285 252 257 221 200 190 237 209 215 224 225 224 224 230 239 247 255 263 241 254 272 247 203 199 178 163 173 171 174 173 173 175 171 179 170 173 166 191 171 172 185 192 180 187 181
168 188 206 201 220 225 256 238 242 235 233 244 204 237 191 190 219 230 203 230 226 229 235 236 239 241 254 219 192 217 215 187 194 186 171 181 178 177 175 177 180 194 181 180 188 183 184 165 187 196 205 210 205 207
185 225 225 208 210 251 225 207 233 247 242 234 246 232 198 167 176 201 235 234 232 219 222 226 229 231 231 210 215 210 204 181 187 178 171 162 167 173 181 175 187 190 190 184 193 192 182 190 190 211 221 214 222 234
183 239 238 256 226 237 239 226 217 217 225 215 239 277 78 154 203 212 55 29 228 210 197 200 210 214 201 179 160 150 164 179 180 164 165 167 168 167 177 195 190 191 191 195 190 199 205 200 202 218 223 229 236 236
205 231 225 241 210 220 238 256 256 270 259 240 224 148 135 100 84 226 190 171 233 216 182 191 194 186 168 163 168 174 181 179 171 162 167 170 176 179 176 183 189 210 205 210 201 203 212 215 217 217 230 224 235 235
252 246 223 233 252 258 271 265 264 243 248 278 327 110 153 175 180 183 171 191 150 137 179 199 222 207 192 174 164 164 165 160 156 160 166 171 183 178 196 198 210 211 211 207 211 207 215 221 218 224 229 234 224 219
236 263 244 244 241 258 270 290 288 340 360 353 343 122 82 3 74 131 131 114 103 65 16 269 203 184 175 167 154 158 159 154 153 160 168 177 189 204 212 189 187 191 191 200 208 216 217 220 221 223 225 230 226 221
235 251 261 259 237 234 254 311 26 49 3 10 24 56 63 80 115 119 113 101 95 74 83 94 125 133 136 141 153 163 170 169 165 177 200 186 187 197 207 206 178 207 221 222 221 230 222 220 221 229 225 223 224 224
251 246 245 256 241 196 184 167 157 114 359 329 341 91 179 108 123 130 113 98 98 87 101 118 120 142 149 149 151 158 166 176 178 183 192 198 160 166 176 198 217 225 221 224 217 211 215 212 219 224 220 217 215 216
254 214 231 256 264 204 201 199 183 152 127 328 244 211 145 127 141 160 148 102 105 108 114 130 138 148 152 154 155 170 166 174 174 113 92 120 137 164 185 191 224 235 229 222 211 204 203 202 204 207 202 215 221 229
214 219 220 236 244 220 228 228 226 218 174 208 203 147 149 170 136 147 169 176 137 119 111 149 149 155 148 149 150 143 132 161 170 184 193 210 228 227 211 206 244 215 201 200 199 200 201 210 217 216 224 226 229 241
217 219 227 257 268 226 192 208 201 223 214 174 168 186 198 179 83 97 150 178 182 112 165 160 173 169 173 183 175 168 181 174 165 185 197 222 240 226 195 193 184 178 192 196 201 205 208 214 228 234 237 236 235 246
Wind_Speed_850mb
45 42 41 45 45 46 48 48 40 30 20 18 20 21 15 11 6 5 5 14 5 13 12 4 7 5 1 5 11 15 16 16 13 7 8 5 5 9 4 19 25 25 17 18 25 5 16 17 10 7 13 15 15 16
39 37 41 45 44 44 47 47 44 36 22 19 22 24 19 15 11 10 6 13 19 5 25 16 17 14 12 7 15 6 14 6 14 10 3 5 6 10 10 16 14 17 23 11 18 10 23 10 18 14 13 14 16 12
35 37 42 43 44 45 47 48 44 37 23 22 25 27 23 20 18 19 12 13 10 21 19 16 12 5 6 4 4 15 7 5 5 10 19 7 4 10 12 12 24 10 17 17 16 33 13 15 18 17 12 13 12 6
36 40 42 43 42 45 49 41 36 35 23 25 29 29 26 23 21 21 10 13 9 17 11 16 8 3 4 2 3 6 3 4 7 10 18 10 10 5 14 10 10 8 32 20 21 22 28 6 14 11 10 9 9 4
36 39 43 43 45 45 41 36 33 29 24 27 32 31 29 26 24 22 8 14 8 9 8 18 11 8 4 5 4 5 7 10 13 15 12 11 6 7 20 10 16 25 14 15 12 59 13 30 14 13 9 8 7 8
34 39 43 44 41 32 33 34 30 17 20 27 34 33 31 28 24 18 15 17 9 6 5 9 15 16 10 6 6 6 6 9 12 10 8 4 3 9 9 11 7 21 20 17 11 35 25 8 8 6 9 8 8 9
33 37 40 37 31 39 34 30 18 21 20 30 38 35 33 32 27 16 2 9 30 17 12 8 9 19 19 12 9 8 4 5 11 8 9 16 9 10 11 18 13 8 13 16 14 10 15 14 17 11 9 8 9 8
31 35 33 27 33 30 23 11 9 18 21 35 35 32 31 32 22 10 4 6 34 21 12 7 6 12 23 22 18 7 9 7 10 10 3 14 14 10 7 13 17 13 15 16 14 12 10 11 9 10 10 12 13 12
29 33 29 23 21 21 13 6 8 17 32 33 31 29 24 20 18 17 14 11 28 13 10 11 10 9 22 24 4 10 8 8 5 9 7 2 8 7 16 17 10 17 23 21 18 18 14 15 14 11 10 12 18 15
26 29 25 19 13 12 12 6 18 27 30 34 37 11 14 20 15 13 8 13 16 24 18 12 24 7 23 19 19 6 8 3 5 7 6 8 12 28 23 17 13 15 20 19 23 22 18 17 15 17 15 11 12 5
23 24 24 18 10 6 1 2 15 24 34 27 14 6 9 24 18 12 12 15 19 10 18 28 28 14 14 12 9 5 3 6 6 9 6 5 7 13 9 19 21 17 21 20 21 18 18 17 15 15 13 11 12 12
20 21 22 19 13 7 7 13 20 25 11 14 10 12 18 11 13 12 11 10 9 15 14 28 28 19 17 9 6 9 6 5 8 12 7 4 9 14 9 16 20 20 23 22 20 17 16 15 15 13 10 9 8 6
17 19 20 20 14 19 11 25 25 22 13 13 6 15 11 11 2 12 17 11 11 14 19 22 24 19 10 18 6 5 8 9 4 7 4 9 21 14 13 16 19 18 23 25 24 22 20 19 17 16 14 10 9 8
16 17 19 21 13 23 25 21 27 19 13 8 10 2 10 11 11 12 16 16 14 20 31 34 31 16 14 13 8 9 5 3 7 8 8 16 17 14 17 19 23 24 26 28 28 25 23 22 19 17 13 10 10 11
17 15 19 19 12 27 32 28 27 21 10 6 10 7 13 17 3 11 13 4 12 25 37 35 25 15 15 8 8 6 8 9 9 10 6 26 14 13 15 19 22 23 24 26 33 31 31 31 27 24 16 13 11 11
17 12 16 12 9 30 32 38 27 14 5 4 12 11 8 9 18 20 19 24 25 30 32 31 11 8 9 8 11 13 8 8 7 5 16 18 18 19 22 21 20 22 27 35 44 37 34 31 32 19 18 11 9 12
14 13 11 6 14 34 26 12 11 10 16 12 16 27 29 19 17 20 21 25 31 35 18 15 11 11 8 7 11 9 11 3 5 4 6 14 19 22 22 19 18 17 22 27 30 28 24 25 26 18 9 5 11 14
11 18 10 14 24 14 31 20 6 9 10 15 23 32 43 25 22 17 12 21 34 35 35 14 8 10 12 18 12 9 15 11 5 5 5 11 16 19 17 15 10 11 18 26 35 38 32 24 15 4 10 13 11 7
20 14 15 18 24 18 15 16 15 9 20 28 37 34 21 22 21 22 14 23 29 21 11 12 12 12 17 15 15 15 5 11 12 4 7 7 11 10 11 14 22 33 36 36 31 22 12 10 13 16 14 10 9 5
17 19 27 20 21 10 9 12 21 15 13 24 38 38 40 41 31 28 29 26 30 27 20 11 22 29 6 15 18 6 11 18 23 8 12 16 10 18 21 27 31 37 33 27 11 19 21 17 16 15 13 12 11 11
11 15 25 25 17 12 9 7 16 12 11 9 9 13 20 35 36 29 26 32 37 39 29 35 42 39 6 5 19 18 12 11 14 8 16 17 18 25 30 31 37 33 21 30 30 25 20 18 15 15 14 13 10 13
14 19 15 17 12 9 12 16 10 8 9 18 15 21 13 24 34 30 28 35 38 37 43 48 45 39 38 26 17 12 7 9 8 9 11 19 26 32 34 34 34 34 33 29 26 21 16 16 12 14 15 15 12 13
19 14 10 13 11 9 12 12 10 11 8 9 17 10 13 21 33 24 17 30 38 40 38 41 44 19 18 7 11 12 12 13 13 14 15 17 20 34 34 34 36 35 31 26 21 21 17 17 11 12 15 14 15 18
16 5 7 9 14 9 9 10 11 10 13 18 14 16 10 16 17 13 10 13 17 16 22 24 18 20 15 19 19 18 14 15 14 16 18 23 27 33 30 38 31 26 25 23 21 19 19 14 15 12 15 15 19 21
7 8 8 9 12 9 10 10 23 17 12 14 19 8 4 7 7 4 4 5 6 11 13 15 20 23 16 12 13 12 14 15 14 17 24 24 23 30 35 30 29 30 26 26 23 21 20 19 16 17 17 18 19 22
5 8 8 9 10 11 6 5 4 6 10 6 12 6 6 5 2 3 2 6 15 13 9 11 11 11 14 17 15 14 20 17 13 18 25 27 30 31 40 35 29 29 24 25 26 22 22 21 22 20 20 19 20 20
5 11 18 16 14 11 11 17 15 5 8 4 2 4 2 6 9 10 10 8 5 3 2 4 7 10 17 17 16 19 20 15 22 22 20 20 18 19 26 26 28 26 27 25 23 24 24 22 20 21 21 19 20 18
13 12 17 11 14 14 16 10 6 4 6 8 5 2 3 6 6 5 13 8 6 4 2 3 7 10 12 17 23 24 22 18 16 16 16 17 15 15 18 29 19 16 23 21 21 22 20 21 20 19 20 21 21 21
16 12 17 16 14 9 8 4 5 5 6 7 5 4 5 5 12 15 12 8 7 6 9 12 16 18 23 23 19 20 21 20 20 17 18 18 17 17 16 16 13 16 23 23 25 23 19 18 17 17 18 20 21 20
17 20 10 10 11 4 3 8 10 7 3 8 8 2 3 5 11 12 11 9 7 10 13 18 17 20 22 20 17 17 18 17 18 21 20 15 16 9 10 11 12 15 20 24 22 24 31 26 20 17 19 20 19 18
7 12 10 11 8 11 20 16 11 7 2 2 7 10 8 10 11 10 7 5 11 12 12 10 14 16 16 18 17 16 15 13 10 6 10 8 6 9 9 7 5 9 14 20 24 25 23 23 16 16 17 18 17 19
18 18 14 12 16 15 12 9 13 12 14 11 10 8 7 9 11 11 12 9 7 9 8 9 10 10 10 13 13 10 7 15 12 12 9 5 3 4 8 7 4 5 8 15 23 24 26 25 23 19 20 24 21 21
23 21 20 15 12 9 15 14 12 8 10 9 9 13 21 8 11 8 7 8 6 3 7 7 8 12 13 11 7 7 11 9 11 10 8 7 7 7 10 8 6 6 8 12 17 21 24 26 24 21 20 18 17 17
Wind_Direction_850mb
305 306 306 313 315 318 319 318 318 305 289 262 246 229 219 210 214 179 206 176 192 102 106 91 78 62 67 274 309 65 270 190 262 277 271 306 227 274 267 285 281 290 262 246 262 210 252 322 238 295 22 322 347 330
306 307 309 313 315 315 316 315 310 300 276 246 225 217 204 199 189 155 152 177 116 4 123 121 96 78 74 16 304 282 322 308 350 297 207 324 254 245 262 274 170 255 286 341 346 21 120 127 80 61 16 354 341 306
308 310 312 313 314 315 314 312 307 300 260 231 209 206 198 190 188 179 146 186 133 139 146 171 127 70 50 22 266 270 153 356 238 294 312 319 323 279 278 269 269 222 227 253 202 200 168 107 95 63 29 5 357 298
311 314 314 315 315 314 311 309 300 297 243 217 201 195 194 187 186 177 157 213 193 207 248 146 172 223 39 4 160 211 263 231 257 249 260 273 272 148 276 324 287 319 24 254 255 103 2 209 113 103 73 46 44 99
314 317 318 317 314 313 307 305 294 291 227 205 193 188 190 183 183 188 181 205 185 260 281 124 161 199 155 98 117 167 199 214 218 218 227 249 316 334 263 285 282 250 235 252 270 19 277 120 141 125 109 89 89 128
318 322 321 319 318 314 310 304 293 254 204 192 184 185 184 178 169 153 191 218 208 234 239 207 122 172 182 146 119 136 180 226 245 269 268 353 359 291 284 298 309 250 233 267 314 130 247 65 112 133 134 120 110 140
319 323 322 325 326 321 314 305 262 213 213 183 180 180 178 176 168 205 338 160 196 180 241 240 189 187 200 207 191 161 146 212 254 241 250 267 164 209 278 266 282 266 250 239 253 175 178 191 185 163 160 148 128 129
318 324 325 326 332 337 331 312 215 201 194 171 171 171 174 179 188 196 243 177 181 195 242 251 128 165 196 216 187 195 208 198 185 269 221 243 157 231 262 264 248 210 215 215 224 222 292 171 184 183 194 191 191 187
320 324 325 324 333 347 337 332 176 173 157 158 157 152 149 157 189 195 205 171 180 228 238 214 217 175 170 233 180 185 247 212 115 244 213 196 221 223 241 256 225 220 215 218 214 218 207 205 197 199 209 221 235 223
317 321 323 318 317 334 351 87 131 144 148 145 137 141 171 179 188 158 148 167 180 221 242 258 232 169 189 179 197 218 192 228 221 169 110 228 242 238 231 228 232 215 212 220 199 210 208 220 214 228 229 225 246 230
308 318 328 314 284 284 330 146 149 149 149 145 178 161 128 160 151 191 185 203 193 219 214 223 226 161 207 199 199 228 198 194 249 130 233 242 247 147 184 210 209 211 205 212 210 215 215 226 219 223 216 221 223 224
297 310 333 324 269 219 194 162 153 147 181 198 152 113 135 181 208 193 191 207 210 209 195 200 194 210 150 215 247 171 236 179 244 126 230 264 127 140 167 177 188 195 194 197 194 191 187 177 174 176 181 190 189 192
290 304 321 330 273 190 181 162 192 198 196 163 197 172 191 173 182 210 189 189 198 195 159 171 171 171 137 217 217 183 221 223 68 225 210 227 122 153 170 177 183 191 194 191 184 180 176 169 166 168 169 179 187 196
277 288 307 316 262 187 184 187 199 208 179 216 190 323 215 189 223 211 222 210 175 166 167 177 165 176 180 175 199 220 188 244 241 200 238 129 150 177 187 188 186 189 194 200 201 201 198 192 193 193 201 202 221 232
266 279 299 304 244 188 185 187 201 190 205 208 239 232 214 246 318 252 247 128 162 164 165 165 178 178 186 171 210 222 186 239 226 215 131 123 154 180 189 197 195 191 198 216 220 219 224 219 214 215 210 218 229 248
273 297 279 263 227 195 194 186 193 189 182 189 248 257 241 280 243 216 201 214 169 172 172 171 166 225 170 217 176 202 224 220 196 157 105 137 168 182 189 200 226 236 232 232 222 224 236 229 207 196 186 201 241 257
267 265 255 205 199 180 174 161 141 204 197 205 224 245 272 296 291 217 188 202 169 181 191 197 186 180 222 219 207 207 217 28 86 73 183 183 205 210 213 245 263 256 229 210 201 210 195 156 146 157 197 240 268 266
222 258 208 155 167 148 198 182 164 245 257 238 239 201 232 247 267 254 189 149 181 196 216 212 275 192 196 217 208 177 212 261 273 283 304 177 195 206 225 250 253 205 189 169 166 149 145 146 153 241 270 245 235 221
221 236 176 155 163 169 183 198 208 266 231 225 240 242 247 233 231 243 250 200 212 238 224 204 225 230 234 255 231 198 341 39 297 137 156 120 157 194 195 163 148 139 139 137 140 143 173 231 217 194 191 199 204 186
236 222 183 174 169 195 225 188 187 241 240 225 225 233 232 229 228 218 217 210 202 213 220 226 245 244 158 303 251 272 297 325 309 257 163 169 188 187 176 157 153 152 148 146 154 148 157 173 178 178 181 180 171 152
218 204 186 185 208 234 278 252 210 244 288 266 258 269 248 223 215 227 224 211 215 221 228 232 240 256 276 191 247 275 287 283 291 293 211 196 186 171 170 166 160 163 164 162 163 163 178 169 170 178 179 178 168 165
164 155 160 189 220 231 256 244 252 285 252 257 221 200 190 237 209 215 224 225 224 224 230 239 247 255 263 241 254 272 247 203 199 178 163 173 171 174 173 173 175 171 179 170 173 166 191 171 172 185 192 180 187 181
168 188 206 201 220 225 256 238 242 235 233 244 204 237 191 190 219 230 203 230 226 229 235 236 239 241 254 219 192 217 215 187 194 186 171 181 178 177 175 177 180 194 181 180 188 183 184 165 187 196 205 210 205 207
185 225 225 208 210 251 225 207 233 247 242 234 246 232 198 167 176 201 235 234 232 219 222 226 229 231 231 210 215 210 204 181 187 178 171 162 167 173 181 175 187 190 190 184 193 192 182 190 190 211 221 214 222 234
183 239 238 256 226 237 239 226 217 217 225 215 239 277 78 154 203 212 55 29 228 210 197 200 210 214 201 179 160 150 164 179 180 164 165 167 168 167 177 195 190 191 191 195 190 199 205 200 202 218 223 229 236 236
205 231 225 241 210 220 238 256 256 270 259 240 224 148 135 100 84 226 190 171 233 216 182 191 194 186 168 163 168 174 181 179 171 162 167 170 176 179 176 183 189 210 205 210 201 203 212 215 217 217 230 224 235 235
252 246 223 233 252 258 271 265 264 243 248 278 327 110 153 175 180 183 171 191 150 137 179 199 222 207 192 174 164 164 165 160 156 160 166 171 183 178 196 198 210 211 211 207 211 207 215 221 218 224 229 234 224 219
236 263 244 244 241 258 270 290 288 340 360 353 343 122 82 3 74 131 131 114 103 65 16 269 203 184 175 167 154 158 159 154 153 160 168 177 189 204 212 189 187 191 191 200 208 216 217 220 221 223 225 230 226 221
235 251 261 259 237 234 254 311 26 49 3 10 24 56 63 80 115 119 113 101 95 74 83 94 125 133 136 141 153 163 170 169 165 177 200 186 187 197 207 206 178 207 221 222 221 230 222 220 221 229 225 223 224 224
251 246 245 256 241 196 184 167 157 114 359 329 341 91 179 108 123 130 113 98 98 87 101 118 120 142 149 149 151 158 166 176 178 183 192 198 160 166 176 198 217 225 221 224 217 211 215 212 219 224 220 217 215 216
254 214 231 256 264 204 201 199 183 152 127 328 244 211 145 127 141 160 148 102 105 108 114 130 138 148 152 154 155 170 166 174 174 113 92 120 137 164 185 191 224 235 229 222 211 204 203 202 204 207 202 215 221 229
214 219 220 236 244 220 228 228 226 218 174 208 203 147 149 170 136 147 169 176 137 119 111 149 149 155 148 149 150 143 132 161 170 184 193 210 228 227 211 206 244 215 201 200 199 200 201 210 217 216 224 226 229 241
217 219 227 257 268 226 192 208 201 223 214 174 168 186 198 179 83 97 150 178 182 112 165 160 173 169 173 183 175 168 181 174 165 185 197 222 240 226 195 193 184 178 192 196 201 205 208 214 228 234 237 236 235 246